Location: Albuquerque Trailhead
(34.7934°N, 106.3736°W)
Time: 00:33:35
(UTC+00:00)

ADEOS II - Pass Details

Date: 20 June 2021
Orbit: 799 x 800 km, 98.6° (Epoch: 01 August)

Event Time Altitude Azimuth Distance (km) Brightness Sun altitude
Rises 08:13:11 0° 29° (NNE) 3,313 6.4 -29.7°
Reaches altitude 10° 08:16:02 10° 44° (NE) 2,378 5.3 -29.5°
Maximum altitude 08:20:05 22° 95° (E) 1,669 3.8 -29.3°
Enters shadow 08:20:34 22° 103° (ESE) 1,681 3.8 -29.2°
